PWSweather.com
Personal Weather Stations
Station Observations
KNJOAKLA6
Oakland, NJ 07436

Oakland, NJ 07436

Lat: 41.041, Lon: -74.231

Elevation: 280

Station Type: Davis VP 2

http://stratacolorado.com/oaknjwx/

High Low Average
Temperature 55.6°F13.1°F 36.3°F2.4°F 42.9°F6.1°F
Dew Point 43.7°F6.5°F 32.5°F0.3°F 37.5°F3.1°F
Winds 4.0 mph SW6.4 mph SW Calm Calm 0.6 mph 1.0 mph
Wind Gusts 13.0 mph20.9 mph -- 3.3 mph5.3 mph
Humidity 92% 64% 82%
Pressure 30.37 in1028.40 in 30.04 in1017.30 in -
Precipitation 0.18 in4.60 in - -
Hour Temp Dew Point Humidity Winds Wind Gusts Pressure Precip Precip Rate Daily Precip Total
12:00 AM 36.7°F2.6°C 32.9°F0.5°C 86% Calm Calm 4.0 mph6.4 kmh 30.09 in1019.0 mb 0.00 in0.0 mm 0.00 in0.0 mm 0.00 in0.0 mm
12:10 AM 37.3°F2.9°C 33.8°F1.0°C 87% 1.0 mph SW1.6 kmh SW 5.0 mph8.0 kmh 30.09 in1019.0 mb 0.00 in0.0 mm 0.00 in0.0 mm 0.00 in0.0 mm
12:20 AM 38.0°F3.3°C 34.5°F1.4°C 87% 3.0 mph SW4.8 kmh SW 6.0 mph9.7 kmh 30.08 in1018.6 mb 0.00 in0.0 mm 0.00 in0.0 mm 0.00 in0.0 mm
12:30 AM 38.8°F3.8°C 35.3°F1.8°C 87% 3.0 mph SW4.8 kmh SW 6.0 mph9.7 kmh 30.08 in1018.6 mb 0.00 in0.0 mm 0.00 in0.0 mm 0.00 in0.0 mm
12:40 AM 39.6°F4.2°C 35.5°F1.9°C 85% 3.0 mph SW4.8 kmh SW 6.0 mph9.7 kmh 30.07 in1018.3 mb 0.00 in0.0 mm 0.00 in0.0 mm 0.00 in0.0 mm
12:50 AM 40.2°F4.6°C 35.8°F2.1°C 84% 2.0 mph SW3.2 kmh SW 6.0 mph9.7 kmh 30.07 in1018.3 mb 0.00 in0.0 mm 0.00 in0.0 mm 0.00 in0.0 mm
01:00 AM 40.7°F4.8°C 35.6°F2.0°C 82% 2.0 mph SW3.2 kmh SW 7.0 mph11.3 kmh 30.07 in1018.3 mb 0.00 in0.0 mm 0.00 in0.0 mm 0.00 in0.0 mm
01:10 AM 41.2°F5.1°C 35.8°F2.1°C 81% 1.0 mph SW1.6 kmh SW 4.0 mph6.4 kmh 30.07 in1018.3 mb 0.00 in0.0 mm 0.00 in0.0 mm 0.00 in0.0 mm
01:20 AM 41.6°F5.3°C 35.9°F2.2°C 80% 2.0 mph SW3.2 kmh SW 6.0 mph9.7 kmh 30.07 in1018.3 mb 0.00 in0.0 mm 0.00 in0.0 mm 0.00 in0.0 mm
01:30 AM 41.9°F5.5°C 35.9°F2.2°C 79% 1.0 mph SW1.6 kmh SW 6.0 mph9.7 kmh 30.07 in1018.3 mb 0.00 in0.0 mm 0.00 in0.0 mm 0.00 in0.0 mm
01:40 AM 42.2°F5.7°C 35.8°F2.1°C 78% Calm Calm 3.0 mph4.8 kmh 30.07 in1018.3 mb 0.00 in0.0 mm 0.00 in0.0 mm 0.00 in0.0 mm
01:50 AM 42.4°F5.8°C 35.7°F2.1°C 77% 3.0 mph SW4.8 kmh SW 6.0 mph9.7 kmh 30.06 in1017.9 mb 0.00 in0.0 mm 0.00 in0.0 mm 0.00 in0.0 mm
02:00 AM 42.5°F5.8°C 35.8°F2.1°C 77% Calm Calm 7.0 mph11.3 kmh 30.06 in1017.9 mb 0.00 in0.0 mm 0.00 in0.0 mm 0.00 in0.0 mm
02:10 AM 42.6°F5.9°C 35.6°F2.0°C 76% Calm Calm -- 30.06 in1017.9 mb 0.00 in0.0 mm 0.00 in0.0 mm 0.00 in0.0 mm
02:20 AM 42.6°F5.9°C 35.6°F2.0°C 76% Calm Calm -- 30.06 in1017.9 mb 0.00 in0.0 mm 0.00 in0.0 mm 0.00 in0.0 mm
02:30 AM 42.4°F5.8°C 35.4°F1.9°C 76% Calm Calm -- 30.06 in1017.9 mb 0.00 in0.0 mm 0.00 in0.0 mm 0.00 in0.0 mm
02:40 AM 42.1°F5.6°C 35.1°F1.7°C 76% Calm Calm -- 30.06 in1017.9 mb 0.00 in0.0 mm 0.00 in0.0 mm 0.00 in0.0 mm
02:50 AM 41.8°F5.4°C 34.8°F1.6°C 76% Calm Calm -- 30.06 in1017.9 mb 0.00 in0.0 mm 0.00 in0.0 mm 0.00 in0.0 mm
03:00 AM 41.2°F5.1°C 34.5°F1.4°C 77% Calm Calm -- 30.06 in1017.9 mb 0.00 in0.0 mm 0.00 in0.0 mm 0.00 in0.0 mm
03:10 AM 40.6°F4.8°C 34.3°F1.3°C 78% Calm Calm -- 30.06 in1017.9 mb 0.00 in0.0 mm 0.00 in0.0 mm 0.00 in0.0 mm
03:20 AM 40.1°F4.5°C 34.1°F1.2°C 79% Calm Calm -- 30.05 in1017.6 mb 0.00 in0.0 mm 0.00 in0.0 mm 0.00 in0.0 mm
03:30 AM 39.7°F4.3°C 34.0°F1.1°C 80% Calm Calm -- 30.05 in1017.6 mb 0.00 in0.0 mm 0.00 in0.0 mm 0.00 in0.0 mm
03:40 AM 39.4°F4.1°C 33.7°F0.9°C 80% Calm Calm -- 30.05 in1017.6 mb 0.00 in0.0 mm 0.00 in0.0 mm 0.00 in0.0 mm
03:50 AM 39.0°F3.9°C 33.7°F0.9°C 81% Calm Calm -- 30.04 in1017.3 mb 0.00 in0.0 mm 0.00 in0.0 mm 0.00 in0.0 mm
04:00 AM 38.7°F3.7°C 33.4°F0.8°C 81% Calm Calm -- 30.04 in1017.3 mb 0.00 in0.0 mm 0.00 in0.0 mm 0.00 in0.0 mm
04:10 AM 38.5°F3.6°C 33.5°F0.8°C 82% Calm Calm -- 30.04 in1017.3 mb 0.00 in0.0 mm 0.00 in0.0 mm 0.00 in0.0 mm
04:20 AM 38.2°F3.4°C 33.2°F0.7°C 82% Calm Calm -- 30.04 in1017.3 mb 0.00 in0.0 mm 0.00 in0.0 mm 0.00 in0.0 mm
04:30 AM 37.9°F3.3°C 33.2°F0.7°C 83% Calm Calm -- 30.04 in1017.3 mb 0.00 in0.0 mm 0.00 in0.0 mm 0.00 in0.0 mm
04:40 AM 37.7°F3.2°C 33.0°F0.6°C 83% Calm Calm -- 30.05 in1017.6 mb 0.00 in0.0 mm 0.00 in0.0 mm 0.00 in0.0 mm
04:50 AM 37.4°F3.0°C 32.7°F0.4°C 83% Calm Calm -- 30.05 in1017.6 mb 0.00 in0.0 mm 0.00 in0.0 mm 0.00 in0.0 mm
05:00 AM 37.1°F2.8°C 32.7°F0.4°C 84% Calm Calm -- 30.05 in1017.6 mb 0.00 in0.0 mm 0.00 in0.0 mm 0.00 in0.0 mm
05:10 AM 36.9°F2.7°C 32.5°F0.3°C 84% Calm Calm -- 30.05 in1017.6 mb 0.00 in0.0 mm 0.00 in0.0 mm 0.00 in0.0 mm
05:20 AM 36.8°F2.7°C 32.7°F0.4°C 85% Calm Calm -- 30.05 in1017.6 mb 0.00 in0.0 mm 0.00 in0.0 mm 0.00 in0.0 mm
05:30 AM 36.7°F2.6°C 32.6°F0.3°C 85% Calm Calm -- 30.06 in1017.9 mb 0.00 in0.0 mm 0.00 in0.0 mm 0.00 in0.0 mm
05:40 AM 36.6°F2.6°C 32.8°F0.4°C 86% Calm Calm -- 30.06 in1017.9 mb 0.00 in0.0 mm 0.00 in0.0 mm 0.00 in0.0 mm
05:50 AM 36.5°F2.5°C 32.7°F0.4°C 86% Calm Calm -- 30.07 in1018.3 mb 0.00 in0.0 mm 0.00 in0.0 mm 0.00 in0.0 mm
06:00 AM 36.4°F2.4°C 32.9°F0.5°C 87% Calm Calm -- 30.07 in1018.3 mb 0.00 in0.0 mm 0.00 in0.0 mm 0.00 in0.0 mm
06:10 AM 36.4°F2.4°C 32.9°F0.5°C 87% Calm Calm -- 30.08 in1018.6 mb 0.00 in0.0 mm 0.00 in0.0 mm 0.00 in0.0 mm
06:20 AM 36.3°F2.4°C 32.8°F0.4°C 87% Calm Calm -- 30.08 in1018.6 mb 0.00 in0.0 mm 0.00 in0.0 mm 0.00 in0.0 mm
06:30 AM 36.5°F2.5°C 33.3°F0.7°C 88% Calm Calm 2.0 mph3.2 kmh 30.09 in1019.0 mb 0.00 in0.0 mm 0.00 in0.0 mm 0.00 in0.0 mm
06:40 AM 36.6°F2.6°C 33.4°F0.8°C 88% Calm Calm 3.0 mph4.8 kmh 30.10 in1019.3 mb 0.00 in0.0 mm 0.00 in0.0 mm 0.00 in0.0 mm
06:50 AM 36.8°F2.7°C 33.6°F0.9°C 88% Calm Calm 3.0 mph4.8 kmh 30.10 in1019.3 mb 0.00 in0.0 mm 0.00 in0.0 mm 0.00 in0.0 mm
07:00 AM 36.9°F2.7°C 33.7°F0.9°C 88% Calm Calm -- 30.10 in1019.3 mb 0.00 in0.0 mm 0.00 in0.0 mm 0.00 in0.0 mm
07:10 AM 37.0°F2.8°C 33.8°F1.0°C 88% Calm Calm -- 30.10 in1019.3 mb 0.00 in0.0 mm 0.00 in0.0 mm 0.00 in0.0 mm
07:20 AM 37.1°F2.8°C 33.9°F1.1°C 88% Calm Calm -- 30.11 in1019.6 mb 0.00 in0.0 mm 0.00 in0.0 mm 0.00 in0.0 mm
07:30 AM 37.2°F2.9°C 34.0°F1.1°C 88% Calm Calm -- 30.11 in1019.6 mb 0.00 in0.0 mm 0.00 in0.0 mm 0.00 in0.0 mm
07:40 AM 37.3°F2.9°C 34.1°F1.2°C 88% Calm Calm 1.0 mph1.6 kmh 30.11 in1019.6 mb 0.00 in0.0 mm 0.00 in0.0 mm 0.00 in0.0 mm
07:50 AM 37.5°F3.1°C 34.3°F1.3°C 88% Calm Calm -- 30.12 in1020.0 mb 0.00 in0.0 mm 0.00 in0.0 mm 0.00 in0.0 mm
08:00 AM 37.7°F3.2°C 34.5°F1.4°C 88% Calm Calm 4.0 mph6.4 kmh 30.14 in1020.7 mb 0.00 in0.0 mm 0.00 in0.0 mm 0.00 in0.0 mm
08:10 AM 38.1°F3.4°C 34.9°F1.6°C 88% Calm Calm -- 30.13 in1020.3 mb 0.00 in0.0 mm 0.00 in0.0 mm 0.00 in0.0 mm
08:20 AM 38.5°F3.6°C 35.3°F1.8°C 88% Calm Calm -- 30.13 in1020.3 mb 0.00 in0.0 mm 0.00 in0.0 mm 0.00 in0.0 mm
08:30 AM 38.9°F3.8°C 35.7°F2.1°C 88% Calm Calm -- 30.13 in1020.3 mb 0.00 in0.0 mm 0.00 in0.0 mm 0.00 in0.0 mm
08:40 AM 39.2°F4.0°C 35.9°F2.2°C 88% Calm Calm -- 30.14 in1020.7 mb 0.00 in0.0 mm 0.00 in0.0 mm 0.00 in0.0 mm
08:50 AM 39.6°F4.2°C 36.1°F2.3°C 87% Calm Calm 1.0 mph1.6 kmh 30.14 in1020.7 mb 0.00 in0.0 mm 0.00 in0.0 mm 0.00 in0.0 mm
09:00 AM 39.9°F4.4°C 36.3°F2.4°C 87% Calm Calm 2.0 mph3.2 kmh 30.14 in1020.7 mb 0.00 in0.0 mm 0.00 in0.0 mm 0.00 in0.0 mm
09:10 AM 40.3°F4.6°C 38.2°F3.4°C 92% Calm Calm 1.0 mph1.6 kmh 30.15 in1021.0 mb 0.00 in0.0 mm 0.00 in0.0 mm 0.00 in0.0 mm
09:20 AM 40.8°F4.9°C 37.5°F3.1°C 88% Calm Calm -- 30.15 in1021.0 mb 0.00 in0.0 mm 0.00 in0.0 mm 0.00 in0.0 mm
09:30 AM 41.2°F5.1°C 37.9°F3.3°C 88% Calm Calm 2.0 mph3.2 kmh 30.16 in1021.3 mb 0.00 in0.0 mm 0.00 in0.0 mm 0.00 in0.0 mm
09:40 AM 41.6°F5.3°C 38.3°F3.5°C 88% Calm Calm 1.0 mph1.6 kmh 30.16 in1021.3 mb 0.00 in0.0 mm 0.00 in0.0 mm 0.00 in0.0 mm
09:50 AM 42.1°F5.6°C 38.5°F3.6°C 87% Calm Calm 1.0 mph1.6 kmh 30.14 in1020.7 mb 0.00 in0.0 mm 0.00 in0.0 mm 0.00 in0.0 mm
10:00 AM 42.6°F5.9°C 38.7°F3.7°C 86% Calm Calm 1.0 mph1.6 kmh 30.14 in1020.7 mb 0.00 in0.0 mm 0.00 in0.0 mm 0.00 in0.0 mm
10:10 AM 43.2°F6.2°C 39.3°F4.1°C 86% Calm Calm 4.0 mph6.4 kmh 30.14 in1020.7 mb 0.00 in0.0 mm 0.00 in0.0 mm 0.00 in0.0 mm
10:20 AM 43.8°F6.6°C 39.6°F4.2°C 85% Calm Calm 2.0 mph3.2 kmh 30.14 in1020.7 mb 0.00 in0.0 mm 0.00 in0.0 mm 0.00 in0.0 mm
10:30 AM 44.2°F6.8°C 40.0°F4.4°C 85% Calm Calm 2.0 mph3.2 kmh 30.14 in1020.7 mb 0.00 in0.0 mm 0.00 in0.0 mm 0.00 in0.0 mm
10:40 AM 44.5°F6.9°C 40.6°F4.8°C 86% Calm Calm 2.0 mph3.2 kmh 30.13 in1020.3 mb 0.00 in0.0 mm 0.00 in0.0 mm 0.00 in0.0 mm
10:50 AM 44.7°F7.1°C 40.5°F4.7°C 85% Calm Calm 1.0 mph1.6 kmh 30.15 in1021.0 mb 0.00 in0.0 mm 0.00 in0.0 mm 0.00 in0.0 mm
11:00 AM 45.0°F7.2°C 40.8°F4.9°C 85% Calm Calm 2.0 mph3.2 kmh 30.15 in1021.0 mb 0.00 in0.0 mm 0.00 in0.0 mm 0.00 in0.0 mm
11:10 AM 45.4°F7.4°C 41.2°F5.1°C 85% Calm Calm 1.0 mph1.6 kmh 30.17 in1021.7 mb 0.00 in0.0 mm 0.00 in0.0 mm 0.00 in0.0 mm
11:20 AM 46.2°F7.9°C 41.3°F5.2°C 83% Calm Calm 2.0 mph3.2 kmh 30.15 in1021.0 mb 0.00 in0.0 mm 0.00 in0.0 mm 0.00 in0.0 mm
11:30 AM 47.0°F8.3°C 41.8°F5.4°C 82% Calm Calm 3.0 mph4.8 kmh 30.15 in1021.0 mb 0.00 in0.0 mm 0.00 in0.0 mm 0.00 in0.0 mm
11:40 AM 47.9°F8.8°C 42.4°F5.8°C 81% Calm Calm 4.0 mph6.4 kmh 30.14 in1020.7 mb 0.00 in0.0 mm 0.00 in0.0 mm 0.00 in0.0 mm
11:50 AM 48.8°F9.3°C 42.9°F6.1°C 80% 1.0 mph SSW1.6 kmh SSW 4.0 mph6.4 kmh 30.17 in1021.7 mb 0.00 in0.0 mm 0.00 in0.0 mm 0.00 in0.0 mm
12:00 PM 49.9°F9.9°C 43.0°F6.1°C 77% 4.0 mph SW6.4 kmh SW 6.0 mph9.7 kmh 30.17 in1021.7 mb 0.00 in0.0 mm 0.00 in0.0 mm 0.00 in0.0 mm
12:10 PM 50.6°F10.3°C 43.0°F6.1°C 75% Calm Calm 4.0 mph6.4 kmh 30.15 in1021.0 mb 0.00 in0.0 mm 0.00 in0.0 mm 0.00 in0.0 mm
12:20 PM 51.4°F10.8°C 43.7°F6.5°C 75% Calm Calm 3.0 mph4.8 kmh 30.15 in1021.0 mb 0.00 in0.0 mm 0.00 in0.0 mm 0.00 in0.0 mm
12:30 PM 52.6°F11.4°C 43.1°F6.2°C 70% 1.0 mph N1.6 kmh N 4.0 mph6.4 kmh 30.17 in1021.7 mb 0.00 in0.0 mm 0.00 in0.0 mm 0.00 in0.0 mm
12:40 PM 53.7°F12.1°C 43.4°F6.3°C 68% 2.0 mph NE3.2 kmh NE 9.0 mph14.5 kmh 30.16 in1021.3 mb 0.00 in0.0 mm 0.00 in0.0 mm 0.00 in0.0 mm
12:50 PM 54.4°F12.4°C 43.7°F6.5°C 67% 1.0 mph NE1.6 kmh NE 5.0 mph8.0 kmh 30.17 in1021.7 mb 0.00 in0.0 mm 0.00 in0.0 mm 0.00 in0.0 mm
01:00 PM 55.2°F12.9°C 43.6°F6.4°C 65% 2.0 mph NE3.2 kmh NE 9.0 mph14.5 kmh 30.17 in1021.7 mb 0.00 in0.0 mm 0.00 in0.0 mm 0.00 in0.0 mm
01:10 PM 55.4°F13.0°C 43.4°F6.3°C 64% Calm Calm 6.0 mph9.7 kmh 30.17 in1021.7 mb 0.00 in0.0 mm 0.00 in0.0 mm 0.00 in0.0 mm
01:20 PM 55.6°F13.1°C 43.6°F6.4°C 64% 1.0 mph NE1.6 kmh NE 7.0 mph11.3 kmh 30.18 in1022.0 mb 0.00 in0.0 mm 0.00 in0.0 mm 0.00 in0.0 mm
01:30 PM 55.5°F13.1°C 43.5°F6.4°C 64% Calm Calm 4.0 mph6.4 kmh 30.17 in1021.7 mb 0.00 in0.0 mm 0.00 in0.0 mm 0.00 in0.0 mm
01:40 PM 55.0°F12.8°C 43.5°F6.4°C 65% Calm Calm 4.0 mph6.4 kmh 30.18 in1022.0 mb 0.00 in0.0 mm 0.00 in0.0 mm 0.00 in0.0 mm
01:50 PM 54.5°F12.5°C 43.0°F6.1°C 65% 2.0 mph N3.2 kmh N 6.0 mph9.7 kmh 30.19 in1022.4 mb 0.00 in0.0 mm 0.00 in0.0 mm 0.00 in0.0 mm
02:00 PM 54.0°F12.2°C 42.9°F6.1°C 66% 1.0 mph N1.6 kmh N 4.0 mph6.4 kmh 30.17 in1021.7 mb 0.00 in0.0 mm 0.00 in0.0 mm 0.00 in0.0 mm
02:10 PM 53.5°F11.9°C 42.8°F6.0°C 67% 1.0 mph NNE1.6 kmh NNE 6.0 mph9.7 kmh 30.18 in1022.0 mb 0.00 in0.0 mm 0.00 in0.0 mm 0.00 in0.0 mm
02:20 PM 53.1°F11.7°C 42.4°F5.8°C 67% 1.0 mph NNE1.6 kmh NNE 6.0 mph9.7 kmh 30.18 in1022.0 mb 0.00 in0.0 mm 0.00 in0.0 mm 0.00 in0.0 mm
02:30 PM 52.7°F11.5°C 42.8°F6.0°C 69% 2.0 mph NNW3.2 kmh NNW 7.0 mph11.3 kmh 30.19 in1022.4 mb 0.00 in0.0 mm 0.00 in0.0 mm 0.00 in0.0 mm
02:40 PM 52.3°F11.3°C 42.1°F5.6°C 68% Calm Calm 10.0 mph16.1 kmh 30.17 in1021.7 mb 0.00 in0.0 mm 0.00 in0.0 mm 0.00 in0.0 mm
02:50 PM 52.1°F11.2°C 42.2°F5.7°C 69% 1.0 mph NNW1.6 kmh NNW 5.0 mph8.0 kmh 30.18 in1022.0 mb 0.00 in0.0 mm 0.00 in0.0 mm 0.00 in0.0 mm
03:00 PM 52.0°F11.1°C 42.2°F5.7°C 69% 1.0 mph NE1.6 kmh NE 7.0 mph11.3 kmh 30.19 in1022.4 mb 0.00 in0.0 mm 0.00 in0.0 mm 0.00 in0.0 mm
03:10 PM 52.1°F11.2°C 42.2°F5.7°C 69% 3.0 mph NNE4.8 kmh NNE 9.0 mph14.5 kmh 30.19 in1022.4 mb 0.00 in0.0 mm 0.00 in0.0 mm 0.00 in0.0 mm
03:20 PM 51.9°F11.1°C 42.1°F5.6°C 69% 2.0 mph NNE3.2 kmh NNE 12.0 mph19.3 kmh 30.20 in1022.7 mb 0.00 in0.0 mm 0.00 in0.0 mm 0.00 in0.0 mm
03:30 PM 51.5°F10.8°C 41.7°F5.4°C 69% 2.0 mph N3.2 kmh N 7.0 mph11.3 kmh 30.21 in1023.0 mb 0.00 in0.0 mm 0.00 in0.0 mm 0.00 in0.0 mm
03:40 PM 51.1°F10.6°C 41.3°F5.2°C 69% 4.0 mph NNE6.4 kmh NNE 9.0 mph14.5 kmh 30.22 in1023.4 mb 0.00 in0.0 mm 0.00 in0.0 mm 0.00 in0.0 mm
03:50 PM 50.6°F10.3°C 40.8°F4.9°C 69% 2.0 mph N3.2 kmh N 9.0 mph14.5 kmh 30.23 in1023.7 mb 0.00 in0.0 mm 0.00 in0.0 mm 0.00 in0.0 mm
04:00 PM 50.1°F10.1°C 40.7°F4.8°C 70% 1.0 mph NE1.6 kmh NE 9.0 mph14.5 kmh 30.24 in1024.0 mb 0.00 in0.0 mm 0.00 in0.0 mm 0.00 in0.0 mm
04:10 PM 49.1°F9.5°C 40.1°F4.5°C 71% 3.0 mph N4.8 kmh N 9.0 mph14.5 kmh 30.26 in1024.7 mb 0.00 in0.0 mm 0.00 in0.0 mm 0.00 in0.0 mm
04:20 PM 48.1°F8.9°C 39.5°F4.2°C 72% 2.0 mph NE3.2 kmh NE 10.0 mph16.1 kmh 30.25 in1024.4 mb 0.00 in0.0 mm 0.00 in0.0 mm 0.00 in0.0 mm
04:30 PM 46.8°F8.2°C 39.0°F3.9°C 74% 4.0 mph ENE6.4 kmh ENE 11.0 mph17.7 kmh 30.25 in1024.4 mb 0.00 in0.0 mm 0.00 in0.0 mm 0.00 in0.0 mm
04:40 PM 45.8°F7.7°C 38.0°F3.3°C 74% 3.0 mph N4.8 kmh N 11.0 mph17.7 kmh 30.26 in1024.7 mb 0.00 in0.0 mm 0.00 in0.0 mm 0.00 in0.0 mm
04:50 PM 45.0°F7.2°C 37.9°F3.3°C 76% 2.0 mph NE3.2 kmh NE 12.0 mph19.3 kmh 30.26 in1024.7 mb 0.00 in0.0 mm 0.00 in0.0 mm 0.00 in0.0 mm
05:00 PM 44.6°F7.0°C 37.8°F3.2°C 77% 2.0 mph NE3.2 kmh NE 11.0 mph17.7 kmh 30.25 in1024.4 mb 0.00 in0.0 mm 0.00 in0.0 mm 0.00 in0.0 mm
05:10 PM 44.4°F6.9°C 38.0°F3.3°C 78% 1.0 mph NE1.6 kmh NE 6.0 mph9.7 kmh 30.26 in1024.7 mb 0.00 in0.0 mm 0.00 in0.0 mm 0.00 in0.0 mm
05:20 PM 44.4°F6.9°C 38.0°F3.3°C 78% 1.0 mph NE1.6 kmh NE 3.0 mph4.8 kmh 30.26 in1024.7 mb 0.00 in0.0 mm 0.00 in0.0 mm 0.00 in0.0 mm
05:30 PM 44.3°F6.8°C 38.2°F3.4°C 79% Calm Calm 2.0 mph3.2 kmh 30.26 in1024.7 mb 0.00 in0.0 mm 0.00 in0.0 mm 0.00 in0.0 mm
05:40 PM 44.3°F6.8°C 38.2°F3.4°C 79% Calm Calm 4.0 mph6.4 kmh 30.26 in1024.7 mb 0.00 in0.0 mm 0.00 in0.0 mm 0.00 in0.0 mm
05:50 PM 44.3°F6.8°C 38.2°F3.4°C 79% Calm Calm 1.0 mph1.6 kmh 30.25 in1024.4 mb 0.00 in0.0 mm 0.00 in0.0 mm 0.00 in0.0 mm
06:00 PM 44.2°F6.8°C 38.4°F3.6°C 80% Calm Calm -- 30.25 in1024.4 mb 0.01 in0.3 mm 0.01 in0.3 mm 0.01 in0.3 mm
06:10 PM 44.2°F6.8°C 38.7°F3.7°C 81% Calm Calm -- 30.25 in1024.4 mb 0.01 in0.3 mm 0.00 in0.0 mm 0.01 in0.3 mm
06:20 PM 44.1°F6.7°C 39.3°F4.1°C 83% Calm Calm -- 30.26 in1024.7 mb 0.02 in0.5 mm 0.06 in1.5 mm 0.02 in0.5 mm
06:30 PM 43.9°F6.6°C 39.4°F4.1°C 84% Calm Calm -- 30.26 in1024.7 mb 0.03 in0.8 mm 0.06 in1.5 mm 0.03 in0.8 mm
06:40 PM 43.7°F6.5°C 39.5°F4.2°C 85% Calm Calm 1.0 mph1.6 kmh 30.27 in1025.1 mb 0.03 in0.8 mm 0.00 in0.0 mm 0.03 in0.8 mm
06:50 PM 43.4°F6.3°C 39.5°F4.2°C 86% Calm Calm 1.0 mph1.6 kmh 30.27 in1025.1 mb 0.03 in0.8 mm 0.00 in0.0 mm 0.03 in0.8 mm
07:00 PM 43.1°F6.2°C 39.5°F4.2°C 87% Calm Calm 3.0 mph4.8 kmh 30.27 in1025.1 mb 0.02 in0.5 mm 0.00 in0.0 mm 0.03 in0.8 mm
07:10 PM 42.8°F6.0°C 39.2°F4.0°C 87% Calm Calm -- 30.29 in1025.7 mb 0.02 in0.5 mm 0.00 in0.0 mm 0.03 in0.8 mm
07:20 PM 42.5°F5.8°C 39.2°F4.0°C 88% 1.0 mph N1.6 kmh N 4.0 mph6.4 kmh 30.30 in1026.1 mb 0.01 in0.3 mm 0.00 in0.0 mm 0.03 in0.8 mm
07:30 PM 42.2°F5.7°C 38.9°F3.8°C 88% 1.0 mph NNE1.6 kmh NNE 7.0 mph11.3 kmh 30.31 in1026.4 mb 0.00 in0.0 mm 0.00 in0.0 mm 0.03 in0.8 mm
07:40 PM 41.6°F5.3°C 38.3°F3.5°C 88% 3.0 mph N4.8 kmh N 6.0 mph9.7 kmh 30.32 in1026.8 mb 0.00 in0.0 mm 0.00 in0.0 mm 0.03 in0.8 mm
07:50 PM 40.9°F4.9°C 37.6°F3.1°C 88% 2.0 mph N3.2 kmh N 13.0 mph20.9 kmh 30.32 in1026.8 mb 0.00 in0.0 mm 0.00 in0.0 mm 0.03 in0.8 mm
08:00 PM 40.2°F4.6°C 36.9°F2.7°C 88% 1.0 mph ENE1.6 kmh ENE 11.0 mph17.7 kmh 30.33 in1027.1 mb 0.00 in0.0 mm 0.00 in0.0 mm 0.03 in0.8 mm
08:10 PM 39.9°F4.4°C 36.9°F2.7°C 89% Calm Calm 3.0 mph4.8 kmh 30.33 in1027.1 mb 0.00 in0.0 mm 0.00 in0.0 mm 0.03 in0.8 mm
08:20 PM 39.7°F4.3°C 36.7°F2.6°C 89% Calm Calm 2.0 mph3.2 kmh 30.33 in1027.1 mb 0.00 in0.0 mm 0.00 in0.0 mm 0.03 in0.8 mm
08:30 PM 39.7°F4.3°C 36.7°F2.6°C 89% Calm Calm -- 30.33 in1027.1 mb 0.00 in0.0 mm 0.00 in0.0 mm 0.03 in0.8 mm
08:40 PM 39.6°F4.2°C 36.9°F2.7°C 90% Calm Calm -- 30.33 in1027.1 mb 0.00 in0.0 mm 0.00 in0.0 mm 0.03 in0.8 mm
08:50 PM 39.6°F4.2°C 36.9°F2.7°C 90% Calm Calm 1.0 mph1.6 kmh 30.34 in1027.4 mb 0.00 in0.0 mm 0.00 in0.0 mm 0.03 in0.8 mm
09:00 PM 39.7°F4.3°C 37.0°F2.8°C 90% 1.0 mph ENE1.6 kmh ENE 4.0 mph6.4 kmh 30.34 in1027.4 mb 0.00 in0.0 mm 0.00 in0.0 mm 0.03 in0.8 mm
09:10 PM 39.7°F4.3°C 37.0°F2.8°C 90% Calm Calm 5.0 mph8.0 kmh 30.35 in1027.8 mb 0.00 in0.0 mm 0.00 in0.0 mm 0.03 in0.8 mm
09:20 PM 39.6°F4.2°C 36.9°F2.7°C 90% Calm Calm 4.0 mph6.4 kmh 30.35 in1027.8 mb 0.00 in0.0 mm 0.00 in0.0 mm 0.03 in0.8 mm
09:30 PM 39.5°F4.2°C 36.8°F2.7°C 90% 1.0 mph ENE1.6 kmh ENE 4.0 mph6.4 kmh 30.35 in1027.8 mb 0.00 in0.0 mm 0.00 in0.0 mm 0.03 in0.8 mm
09:40 PM 39.4°F4.1°C 36.7°F2.6°C 90% Calm Calm 3.0 mph4.8 kmh 30.35 in1027.8 mb 0.00 in0.0 mm 0.00 in0.0 mm 0.03 in0.8 mm
09:50 PM 39.4°F4.1°C 37.0°F2.8°C 91% 1.0 mph NE1.6 kmh NE 4.0 mph6.4 kmh 30.35 in1027.8 mb 0.00 in0.0 mm 0.00 in0.0 mm 0.03 in0.8 mm
10:00 PM 39.4°F4.1°C 37.0°F2.8°C 91% Calm Calm 3.0 mph4.8 kmh 30.35 in1027.8 mb 0.00 in0.0 mm 0.00 in0.0 mm 0.03 in0.8 mm
10:10 PM 39.4°F4.1°C 37.0°F2.8°C 91% Calm Calm 4.0 mph6.4 kmh 30.35 in1027.8 mb 0.00 in0.0 mm 0.00 in0.0 mm 0.03 in0.8 mm
10:20 PM 39.4°F4.1°C 37.0°F2.8°C 91% Calm Calm 3.0 mph4.8 kmh 30.36 in1028.1 mb 0.00 in0.0 mm 0.00 in0.0 mm 0.03 in0.8 mm
10:30 PM 39.5°F4.2°C 37.1°F2.8°C 91% Calm Calm 4.0 mph6.4 kmh 30.36 in1028.1 mb 0.00 in0.0 mm 0.00 in0.0 mm 0.03 in0.8 mm
10:40 PM 39.5°F4.2°C 37.1°F2.8°C 91% 1.0 mph NE1.6 kmh NE 3.0 mph4.8 kmh 30.36 in1028.1 mb 0.00 in0.0 mm 0.00 in0.0 mm 0.03 in0.8 mm
10:50 PM 39.3°F4.1°C 36.9°F2.7°C 91% Calm Calm 3.0 mph4.8 kmh 30.36 in1028.1 mb 0.00 in0.0 mm 0.00 in0.0 mm 0.03 in0.8 mm
11:00 PM 39.3°F4.1°C 36.6°F2.6°C 90% Calm Calm 1.0 mph1.6 kmh 30.36 in1028.1 mb 0.00 in0.0 mm 0.00 in0.0 mm 0.03 in0.8 mm
11:10 PM 39.2°F4.0°C 36.5°F2.5°C 90% Calm Calm 2.0 mph3.2 kmh 30.37 in1028.4 mb 0.00 in0.0 mm 0.00 in0.0 mm 0.03 in0.8 mm
11:20 PM 39.1°F3.9°C 36.4°F2.4°C 90% Calm Calm 2.0 mph3.2 kmh 30.37 in1028.4 mb 0.00 in0.0 mm 0.00 in0.0 mm 0.03 in0.8 mm
11:30 PM 39.0°F3.9°C 36.3°F2.4°C 90% Calm Calm 2.0 mph3.2 kmh 30.37 in1028.4 mb 0.00 in0.0 mm 0.00 in0.0 mm 0.03 in0.8 mm
11:40 PM 38.9°F3.8°C 36.2°F2.3°C 90% Calm Calm 3.0 mph4.8 kmh 30.37 in1028.4 mb 0.00 in0.0 mm 0.00 in0.0 mm 0.03 in0.8 mm
11:50 PM 38.9°F3.8°C 36.2°F2.3°C 90% 1.0 mph NNE1.6 kmh NNE 5.0 mph8.0 kmh 30.37 in1028.4 mb 0.00 in0.0 mm 0.00 in0.0 mm 0.03 in0.8 mm